Date String (YYYY-MM-DD hh:mm:ss) UTC,Instrument flags,absolute air pressure of the measurement (hPa),sample flow rate (lpm),inlet stack bypass flow (lpm),air temperature of the measurement (°C),ambient temperature measured by the external sensor (°C),aerosol sample conditioner tube jacket temperature (°C),OPC LED temperature (°C),internal box temperature (°C),relative humidity of the measurement (%),span deviation,mass concentration of particles derived from Lorenz-Mie calculation of OPC scattering (μg/m³),mass concentration of particles derived from Lorenz-Mie calculation of OPC scattering (μg/m³),mass concentration of particles derived from Lorenz-Mie calculation of OPC scattering (μg/m³)
DateTimeUTC,F1_M11,P_M11,Q1_M11,Q2_M11,T1_M11,T2_M11,T3_M11,T4_M11,T5_M11,U1_M11,ZSPAN_M11,X0_M11,X2_M11,X1_M11
2023-09-11 12:00:00,SystemResetWarning,0837.1,5.00,000.00,028.8,026.2,000.0,037.4,030.2,30.2,-001.1,0007.70,0004.26,0003.95
2023-09-11 12:01:00,SystemResetWarning,0837.2,4.99,000.00,028.8,026.4,000.0,037.3,030.2,30.2,-001.0,0007.79,0004.32,0004.01
2023-09-11 12:02:00,SystemResetWarning,0837.2,5.00,000.00,028.8,026.7,000.0,037.3,030.3,30.3,-001.1,0007.89,0004.40,0004.09
2023-09-11 12:03:00,SystemResetWarning,0837.2,5.00,000.00,028.8,026.8,000.0,037.3,030.3,30.4,-001.3,0007.89,0004.42,0004.11
2023-09-11 12:04:00,SystemResetWarning,0837.2,5.01,000.00,028.8,027.0,000.0,037.3,030.4,30.4,-001.2,0007.94,0004.45,0004.12
2023-09-11 12:05:00,SystemResetWarning,0837.2,4.99,000.00,028.8,027.1,000.0,037.3,030.4,30.5,-000.8,0007.87,0004.46,0004.15
2023-09-11 12:06:00,SystemResetWarning,0837.2,4.99,000.00,028.8,027.2,000.0,037.3,030.4,30.5,-000.6,0008.03,0004.51,0004.18
2023-09-11 12:07:00,SystemResetWarning,0837.2,4.99,000.00,028.8,027.3,000.0,037.2,030.5,30.5,-000.2,0008.57,0004.55,0004.20
2023-09-11 12:08:00,SystemResetWarning,0837.2,5.00,000.00,028.8,027.4,000.0,037.2,030.5,30.5,0000.1,0008.77,0004.59,0004.23
2023-09-11 12:09:00,SystemResetWarning,0837.2,5.01,000.00,028.9,027.4,000.0,037.2,030.5,30.5,0000.2,0008.80,0004.61,0004.25
2023-09-11 12:10:00,SystemResetWarning,0837.2,5.01,000.00,028.9,027.5,000.0,037.2,030.5,30.6,0000.0,0008.47,0004.61,0004.25
2023-09-11 12:11:00,SystemResetWarning,0837.2,5.01,000.00,028.9,027.5,000.0,037.2,030.6,30.6,0000.2,0008.36,0004.63,0004.26
2023-09-11 12:12:00,SystemResetWarning,0837.2,5.00,000.00,028.9,027.6,000.0,037.2,030.6,30.7,-000.2,0008.39,0004.66,0004.28
2023-09-11 12:13:00,SystemResetWarning,0837.2,5.00,000.00,028.9,027.6,000.0,037.2,030.6,30.7,-000.2,0008.57,0004.63,0004.25
2023-09-11 12:14:00,SystemResetWarning,0837.2,4.99,000.00,028.9,027.6,000.0,037.2,030.6,30.7,-000.4,0008.64,0004.59,0004.23
2023-09-11 12:15:00,SystemResetWarning,0837.2,4.99,000.00,029.0,027.6,000.0,037.3,030.6,30.7,-000.3,0008.51,0004.53,0004.21
2023-09-11 12:16:00,SystemResetWarning,0837.2,5.00,000.00,029.0,027.7,000.0,037.3,030.7,30.7,-000.8,0008.54,0004.49,0004.15
2023-09-11 12:17:00,SystemResetWarning,0837.2,5.00,000.00,029.0,027.7,000.0,037.3,030.7,30.7,-000.8,0008.37,0004.44,0004.09
2023-09-11 12:18:00,SystemResetWarning,0837.2,5.00,000.00,029.0,027.7,000.0,037.3,030.7,30.8,-000.5,0007.84,0004.40,0004.03
2023-09-11 12:19:00,SystemResetWarning,0837.2,5.00,000.00,029.0,027.7,000.0,037.3,030.7,30.9,-001.1,0007.60,0004.30,0003.96
2023-09-11 12:20:00,SystemResetWarning,0837.2,4.99,000.00,029.0,027.7,000.0,037.3,030.7,30.9,-001.4,0007.48,0004.22,0003.89
2023-09-11 12:21:00,SystemResetWarning,0837.4,5.00,000.00,029.0,027.7,000.0,037.3,030.7,30.9,-001.3,0007.41,0004.14,0003.82
2023-09-11 12:22:00,SystemResetWarning,0837.3,5.00,000.00,029.1,027.7,000.0,037.3,030.7,30.9,-001.4,0007.37,0004.08,0003.75
2023-09-11 12:23:00,SystemResetWarning,0837.4,5.01,000.00,029.1,027.7,000.0,037.3,030.7,30.8,-000.9,0007.23,0003.99,0003.68
2023-09-11 12:24:00,SystemResetWarning,0837.3,5.01,000.00,029.1,027.7,000.0,037.4,030.7,30.7,-000.6,0006.56,0003.90,0003.61
2023-09-11 12:25:00,SystemResetWarning,0837.4,4.99,000.00,029.1,027.7,000.0,037.4,030.7,30.6,-000.4,0006.39,0003.87,0003.57
2023-09-11 12:26:00,SystemResetWarning,0837.3,4.99,000.00,029.1,027.7,000.0,037.4,030.7,30.5,-000.8,0006.41,0003.86,0003.53
2023-09-11 12:27:00,SystemResetWarning,0837.3,5.00,000.00,029.1,027.7,000.0,037.4,030.7,30.4,-000.8,0006.25,0003.83,0003.50
2023-09-11 12:28:00,SystemResetWarning,0837.3,5.00,000.00,029.1,027.7,000.0,037.4,030.7,30.3,-001.5,0006.08,0003.78,0003.47
2023-09-11 12:29:00,SystemResetWarning,0837.3,5.01,000.00,029.1,027.7,000.0,037.4,030.7,30.4,-001.9,0006.07,0003.76,0003.46
2023-09-11 12:30:00,SystemResetWarning,0837.4,5.00,000.00,029.1,027.7,000.0,037.4,030.7,30.3,-001.6,0006.77,0003.77,0003.45
2023-09-11 12:31:00,SystemResetWarning,0837.4,5.00,000.00,029.1,027.7,000.0,037.4,030.7,30.3,-001.3,0007.20,0003.80,0003.45
2023-09-11 12:32:00,SystemResetWarning,0837.4,5.00,000.00,029.1,027.7,000.0,037.4,030.7,30.3,-000.5,0007.04,0003.77,0003.45
2023-09-11 12:33:00,SystemResetWarning,0837.4,5.00,000.00,029.2,027.7,000.0,037.4,030.7,30.3,-000.2,0006.97,0003.76,0003.45
2023-09-11 12:34:00,SystemResetWarning,0837.4,5.00,000.00,029.2,027.7,000.0,037.5,030.8,30.3,-000.1,0007.07,0003.78,0003.44
2023-09-11 12:35:00,SystemResetWarning,0837.4,4.99,000.00,029.2,027.7,000.0,037.5,030.8,30.3,0000.0,0007.26,0003.82,0003.46
2023-09-11 12:36:00,SystemResetWarning,0837.4,5.00,000.00,029.2,027.7,000.0,037.5,030.8,30.3,0000.3,0007.55,0003.82,0003.47
2023-09-11 12:37:00,SystemResetWarning,0837.4,4.99,000.00,029.2,027.7,000.0,037.5,030.8,30.3,0000.7,0007.53,0003.81,0003.48
2023-09-11 12:38:00,SystemResetWarning,0837.4,5.01,000.00,029.2,027.7,000.0,037.5,030.8,30.3,0001.1,0007.49,0003.80,0003.48
2023-09-11 12:39:00,SystemResetWarning,0837.5,5.02,000.00,029.2,027.7,000.0,037.5,030.8,30.4,0001.0,0007.54,0003.81,0003.50
2023-09-11 12:40:00,SystemResetWarning,0837.5,4.99,000.00,029.2,027.7,000.0,037.5,030.8,30.4,0001.1,0007.47,0003.82,0003.52
2023-09-11 12:41:00,SystemResetWarning,0837.5,5.00,000.00,029.2,027.7,000.0,037.5,030.8,30.4,0001.1,0006.93,0003.82,0003.54
2023-09-11 12:42:00,SystemResetWarning,0837.6,5.00,000.00,029.2,027.7,000.0,037.5,030.8,30.4,0001.3,0006.58,0003.81,0003.55
2023-09-11 12:43:00,SystemResetWarning,0837.5,5.00,000.00,029.2,027.7,000.0,037.5,030.8,30.4,0001.3,0006.82,0003.85,0003.57
2023-09-11 12:44:00,SystemResetWarning,0837.5,5.01,000.00,029.2,027.7,000.0,037.5,030.8,30.4,0001.1,0007.92,0003.87,0003.59
2023-09-11 12:45:00,SystemResetWarning,0837.5,5.01,000.00,029.2,027.8,000.0,037.5,030.8,30.4,0001.2,0008.13,0003.89,0003.61
2023-09-11 12:46:00,SystemResetWarning,0837.5,4.98,000.00,029.2,027.8,000.0,037.5,030.8,30.4,0001.0,0008.14,0003.90,0003.62
2023-09-11 12:47:00,SystemResetWarning,0837.5,4.99,000.00,029.2,027.4,000.0,037.5,030.8,30.5,0001.1,0007.79,0003.92,0003.64
2023-09-11 12:48:00,SystemResetWarning,0837.4,5.01,000.00,029.2,025.6,000.0,037.4,030.5,30.6,0001.0,0007.80,0003.95,0003.68
2023-09-11 12:49:00,SystemResetWarning,0837.4,5.01,000.00,029.1,024.7,000.0,037.3,030.3,30.8,0000.8,0008.03,0004.02,0003.72
2023-09-11 12:50:00,SystemResetWarning,0837.4,5.01,000.00,028.9,024.6,000.0,037.3,030.0,31.1,0001.2,0008.06,0004.07,0003.75
2023-09-11 12:51:00,SystemResetWarning,0837.4,4.99,000.00,028.8,024.9,000.0,037.3,029.8,31.4,0001.2,0008.13,0004.11,0003.78
2023-09-11 12:52:00,SystemResetWarning,0837.5,4.99,000.00,028.7,025.2,000.0,037.3,029.8,31.6,0001.4,0008.15,0004.15,0003.82
2023-09-11 12:53:00,SystemResetWarning,0837.5,5.00,000.00,028.6,025.6,000.0,037.2,029.8,31.8,0001.4,0008.16,0004.18,0003.86
2023-09-11 12:54:00,SystemResetWarning,0837.4,5.00,000.00,028.6,025.9,000.0,037.2,029.9,31.9,0001.4,0008.18,0004.22,0003.90
2023-09-11 12:55:00,SystemResetWarning,0837.5,5.00,000.00,028.6,026.2,000.0,037.2,029.9,31.9,0001.2,0007.33,0004.26,0003.94
2023-09-11 12:56:00,SystemResetWarning,0837.5,5.01,000.00,028.6,026.4,000.0,037.2,030.0,32.0,0000.9,0007.08,0004.28,0003.98
2023-09-11 12:57:00,SystemResetWarning,0837.6,5.00,000.00,028.6,026.6,000.0,037.2,030.0,32.0,0001.1,0007.58,0004.35,0004.02
2023-09-11 12:58:00,SystemResetWarning,0837.5,4.99,000.00,028.6,026.7,000.0,037.1,030.0,32.0,0001.0,0007.80,0004.41,0004.05
2023-09-11 12:59:00,SystemResetWarning,0837.6,5.00,000.00,028.6,026.8,000.0,037.1,030.0,32.0,0000.8,0008.01,0004.44,0004.04
